Regional Weather Roundup
Issued by NWS

Home | Current Version | Previous Version | Text Only | Print | Product List | Glossary Off
Versions: 1 2 3 4 5 6 7 8 9 10 11 12 13 14 15 16 17 18 19 20 21 22 23 24 25 26 27 28 29 30 31 32 33 34 35 36 37 38 39 40 41 42 43 44 45 46 47 48 49 50

000
ASUS43 KFSD 231210
RWRSD

WEATHER ROUNDUP FOR SOUTH DAKOTA
NATIONAL WEATHER SERVICE SIOUX FALLS SD
700 AM CDT SUN JUL 23 2017

NOTE: "FAIR" INDICATES FEW OR NO CLOUDS BELOW 12,000 FEET WITH NO
SIGNIFICANT WEATHER AND/OR OBSTRUCTIONS TO VISIBILITY.


SDZ001>005-009-010-012>017-231300-
NORTHWEST AND NORTH CENTRAL SOUTH DAKOTA

CITY           SKY/WX    TMP DP  RH WIND       PRES   REMARKS
BUFFALO          N/A     58  49  72 CALM      30.05R
FAITH            N/A     59  49  69 NE5       30.09S
MOBRIDGE       CLEAR     61  58  90 N6        30.04R
$$

SDZ012>016-024>037-041>051-057-063-072>074-231300-
SOUTHWEST AND SOUTH CENTRAL SOUTH DAKOTA

CITY           SKY/WX    TMP DP  RH WIND       PRES   REMARKS
RAPID CTY ARPT CLEAR     58  45  62 CALM      30.11S
PIERRE         CLEAR     61  53  75 N7        30.04R
CUSTER         CLEAR     52  37  56 N5        30.23S
ELLSWORTH AFB  CLEAR     62  43  50 CALM      30.11R
PHILIP         CLEAR     53  47  79 W7        30.07R
PINE RIDGE     CLEAR     55  52  89 E3        30.10S
SPEARFISH      FAIR      55  45  67 W3        30.14R
WINNER         FAIR      61  51  70 W5        30.05R
$$

SDZ004>011-016>023-039-040-231300-
NORTHEAST SOUTH DAKOTA

CITY           SKY/WX    TMP DP  RH WIND       PRES   REMARKS
ABERDEEN       CLEAR     61  57  87 N6        30.01R
WATERTOWN      CLEAR     62  60  93 NW7       29.98R
BROOKINGS      CLEAR     61  58  90 N6        29.99R
SISSETON         N/A     62  59  90 NW9       29.97R
$$

SDZ017-020-022-023-036>040-048>070-231300-
SOUTHEAST SOUTH DAKOTA

CITY           SKY/WX    TMP DP  RH WIND       PRES   REMARKS
SIOUX FALLS    PTCLDY    65  60  84 CALM      29.98R
HURON          CLEAR     60  59  96 NW8       30.00R
CHAMBERLAIN    CLEAR     66  59  78 N3        30.03R
MITCHELL       CLEAR     64  60  87 N6        30.00R
YANKTON        CLEAR     65  60  84 NW5       29.98R
$$

ABBREVIATIONS USED IN REMARKS
   TC - TEMPERATURE IN CELSIUS
  WCI - WIND CHILL INDEX
   HX - HEAT INDEX
  VSB - VISIBILITY





USA.gov is the U.S. government's official web portal to all federal, state and local government web resources and services.